Temperature
17 17 16 15 15 15 15 14 14 14 14 14 13 13 13 13 13 13 13 13 13 13 13 12 12 12 13 13 13 14 14 14 14 13 13 12 12 12 13 13 12 12 13
18 17 16 15 15 15 14 14 14 14 14 13 13 13 13 12 12 13 12 13 12 12 12 12 12 12 12 13 13 13 13 14 13 13 13 12 11 11 11 12 12 12 12
18 17 16 15 15 15 14 14 14 14 14 13 13 12 12 12 12 12 12 12 12 12 12 11 11 12 12 12 13 13 13 13 13 13 12 11 10 10 10 11 11 11 11
17 16 15 15 15 14 14 14 14 14 13 13 13 12 12 12 12 12 12 12 12 11 12 11 11 12 12 12 12 13 13 13 12 12 11 10 10 10 10 10 10 10 10
17 16 15 15 15 14 14 14 14 13 13 13 12 12 12 11 11 11 11 11 11 11 11 11 11 11 11 12 12 12 12 12 12 11 10 10 10 10 10 10 10 10 10
16 15 15 15 14 14 14 14 13 13 13 12 12 12 11 11 11 11 11 11 11 11 11 11 11 11 11 11 12 12 12 12 10 10 10 10 9 9 9 9 10 10 10
16 15 14 14 14 14 14 13 13 13 13 12 12 11 11 11 11 11 11 11 11 11 11 11 11 11 11 11 11 11 11 11 10 10 9 9 9 9 9 9 9 9 9
15 14 14 14 14 14 14 13 13 13 13 12 11 11 11 11 11 11 11 11 11 11 10 10 10 10 10 10 11 11 11 10 9 9 9 9 9 9 9 9 9 9 9
15 14 14 14 14 14 13 13 13 13 12 12 11 11 11 11 11 11 11 11 11 10 10 10 10 10 10 10 10 10 10 10 9 9 8 8 8 8 8 8 8 9 9
14 14 14 13 13 13 13 13 13 12 12 11 11 11 11 11 10 10 10 10 10 10 10 10 10 10 10 10 10 10 10 9 9 8 8 8 8 8 8 8 8 8 8
14 14 14 13 13 13 13 12 12 12 11 11 11 11 11 10 10 10 10 10 10 10 10 10 10 10 10 9 9 10 9 9 8 8 8 8 8 8 8 8 8 8 8
15 14 14 13 13 13 12 12 12 11 11 11 10 11 10 10 10 10 10 10 10 10 10 10 10 10 9 9 9 9 9 9 8 8 8 9 8 8 8 8 8 8 8
15 14 14 13 13 13 12 12 12 11 11 11 10 10 10 10 10 10 10 10 10 10 9 9 9 9 9 9 9 9 9 9 9 8 8 9 8 8 7 7 7 7 7
15 15 14 14 13 13 12 12 12 11 11 11 11 10 10 10 10 10 10 9 9 9 9 9 9 9 9 9 9 9 9 9 9 9 9 9 8 8 7 7 7 7 7
16 15 15 14 13 13 13 12 12 12 11 11 11 11 11 11 10 10 10 10 10 9 9 9 9 9 9 9 9 9 9 9 9 8 8 9 8 8 7 7 7 7 7
17 16 15 15 14 13 13 13 12 12 12 11 11 11 11 11 10 10 10 10 10 9 9 9 9 9 9 9 9 9 9 9 9 8 8 8 8 8 8 7 7 7 7
17 16 16 15 14 14 13 13 13 12 12 12 12 11 11 11 10 10 10 10 10 9 9 9 9 9 9 9 9 9 9 9 9 8 8 8 8 8 8 8 7 7 7
16 16 16 15 15 14 14 13 13 13 12 12 11 11 11 11 11 10 10 10 10 10 9 9 9 9 9 9 9 9 9 9 9 9 8 8 8 8 7 8 7 7 7
16 16 16 16 15 15 14 13 13 12 12 12 12 11 11 11 11 10 10 10 10 10 9 9 9 9 9 9 9 9 9 9 9 9 8 8 8 8 7 7 7 7 7
16 16 15 15 15 14 13 12 12 12 12 12 12 12 11 11 11 10 10 10 10 10 9 9 9 9 9 9 9 9 9 9 9 9 8 8 8 8 7 7 7 7 7
16 15 15 15 15 14 13 13 12 13 13 12 12 12 11 11 11 10 10 10 10 9 9 9 9 9 9 9 9 9 9 9 9 9 8 8 8 8 7 7 7 7 7
16 16 16 15 15 15 15 15 14 13 12 12 12 12 11 11 11 10 10 10 10 10 9 9 9 9 9 9 9 8 8 8 9 9 8 8 8 7 7 7 7 7 6
17 17 17 17 16 16 16 14 13 12 11 11 12 12 12 11 11 11 10 10 10 10 9 9 9 9 9 9 9 9 8 9 8 8 9 8 8 7 7 7 7 6 6
18 18 17 17 17 16 15 14 13 13 13 14 14 13 13 12 11 11 11 10 10 10 9 9 9 9 9 9 9 9 9 8 8 8 8 8 8 7 7 7 6 6 6
18 18 18 17 17 16 15 15 14 14 14 13 13 13 12 12 12 11 11 10 10 10 9 9 9 9 9 9 9 9 9 8 8 7 7 7 7 7 7 7 6 6 6
18 18 18 17 16 16 15 15 15 15 14 13 13 13 12 12 12 11 11 10 10 10 10 9 9 9 9 9 9 9 8 8 8 8 7 7 6 7 7 7 6 6 5
Wind_Speed
15 20 22 23 21 20 18 17 16 15 15 15 15 14 15 15 15 15 15 15 15 14 15 15 16 16 16 17 17 17 17 17 17 17 17 17 17 17 16 15 13 14 17
20 23 24 24 22 21 19 18 17 16 15 15 15 15 15 15 15 15 15 15 15 15 14 15 15 15 16 16 16 16 16 16 16 15 14 14 16 16 16 16 15 14 15
21 23 25 24 23 21 20 19 18 17 16 15 15 15 14 14 14 14 15 15 15 14 14 14 15 15 15 15 15 15 15 15 14 12 10 12 13 14 14 14 14 14 14
22 23 24 24 23 22 21 19 18 17 16 15 15 14 14 14 14 15 14 14 14 14 14 14 14 14 14 15 14 14 14 13 12 9 10 11 11 13 13 13 13 12 12
21 22 24 24 23 22 22 20 19 18 16 16 15 15 14 14 14 14 14 14 14 14 13 13 13 13 14 14 14 13 13 12 9 9 10 10 10 11 11 12 11 11 11
20 21 24 24 24 23 21 20 19 18 17 16 16 15 15 14 14 14 14 13 13 13 13 12 12 13 13 13 12 12 11 9 7 9 9 9 10 10 10 10 10 10 10
20 20 24 24 23 22 21 20 19 18 17 16 16 15 15 14 14 13 13 13 12 12 12 11 11 12 12 11 11 10 9 7 7 8 8 8 10 9 9 9 9 10 10
19 19 22 23 22 22 21 20 19 18 18 17 16 15 15 14 14 13 12 12 11 11 11 11 10 10 10 10 10 9 8 5 6 7 7 8 9 9 9 9 9 9 10
18 17 19 21 21 22 21 20 19 19 18 17 16 15 15 14 13 13 12 11 10 10 9 9 9 9 9 9 9 8 7 4 5 6 6 7 9 9 9 9 9 10 11
17 17 17 19 20 20 20 20 19 19 18 17 16 15 15 13 13 12 11 10 10 9 9 8 9 9 8 8 8 7 4 1 5 5 5 7 8 8 8 9 10 10 11
17 17 16 17 18 19 18 19 19 18 18 17 16 16 14 12 12 11 10 9 9 8 8 8 8 8 7 8 7 4 1 3 4 4 5 7 7 8 8 9 10 10 11
21 19 17 17 17 18 16 18 17 16 17 15 14 15 12 11 10 9 10 8 8 8 8 8 7 6 3 4 5 2 3 3 3 4 5 7 7 7 8 9 9 10 10
22 20 18 17 17 16 14 15 13 13 14 14 14 14 12 10 9 9 9 8 8 8 7 7 5 4 3 3 2 3 3 3 3 3 5 6 6 6 7 8 8 9 9
21 21 19 18 17 17 15 13 13 12 12 12 14 14 12 9 9 9 7 7 7 6 5 5 3 4 3 3 2 2 2 2 2 3 5 7 6 6 7 7 8 8 9
22 22 21 20 18 16 14 12 12 13 13 13 13 14 13 10 9 9 8 7 7 6 6 4 4 4 3 2 2 1 2 2 2 2 4 7 7 7 7 7 8 8 9
22 23 22 21 20 18 15 13 13 13 13 14 13 14 15 12 10 9 8 7 7 6 5 5 4 3 2 1 1 1 1 2 2 2 3 5 8 8 7 7 7 8 8
23 22 23 22 21 20 18 15 13 13 14 13 13 15 15 13 12 10 8 8 7 7 7 5 4 3 2 1 1 1 1 1 1 2 2 3 4 7 7 7 7 8 8
21 22 22 19 21 21 18 16 13 14 14 13 14 15 16 15 14 11 8 8 9 8 7 5 4 3 2 2 1 1 1 1 1 2 3 3 3 3 5 7 7 8 8
21 22 22 22 22 21 19 15 14 13 13 13 14 14 16 16 16 13 9 9 10 8 7 5 5 4 3 2 1 1 1 1 2 2 3 3 2 2 2 5 5 7 7
20 21 22 22 22 20 16 13 11 12 12 13 14 15 17 16 17 14 10 11 11 8 7 7 6 4 3 2 2 1 1 2 2 2 3 3 3 2 1 1 2 3 5
20 21 22 23 22 19 15 15 15 14 14 13 13 17 18 18 18 15 11 11 11 9 9 8 6 6 4 3 2 2 2 3 3 3 3 3 3 2 1 1 2 3 3
22 23 23 24 23 22 18 17 16 15 13 13 12 15 19 19 18 16 14 11 11 10 10 10 8 5 4 4 3 2 3 4 4 4 4 4 4 3 3 3 3 3 4
23 24 22 25 25 24 22 16 13 11 10 11 13 14 17 20 20 18 17 14 12 12 10 11 10 9 6 5 4 4 3 3 2 4 5 5 5 4 4 4 4 4 4
23 22 24 24 25 25 23 19 20 17 16 18 15 15 17 19 20 19 18 16 14 12 12 11 11 9 7 6 4 4 3 2 3 2 4 5 5 6 5 4 5 4 4
21 20 22 23 24 25 24 24 23 20 18 15 15 17 17 17 18 19 18 16 14 12 13 12 11 10 8 7 5 4 4 3 5 4 4 4 4 5 5 5 5 5 5
17 18 20 22 24 24 25 25 25 24 21 18 19 17 16 14 15 18 18 16 15 13 14 13 12 12 10 9 7 6 5 4 5 5 5 5 5 4 4 5 5 5 5
Wind_Direction
164 163 163 159 155 152 149 145 141 137 131 126 121 115 111 108 104 99 97 94 92 91 89 86 83 81 79 76 73 72 70 67 65 62 62 62 62 59 54 48 47 52 47
157 160 161 158 155 153 150 145 141 137 133 129 123 119 115 111 107 104 101 97 94 92 90 88 85 82 80 78 75 74 72 70 66 63 65 67 63 60 58 53 49 49 47
154 157 159 157 155 153 150 145 141 139 135 132 127 123 120 115 111 108 104 100 97 94 92 89 85 83 82 81 77 75 74 70 66 62 65 65 64 59 57 55 52 49 46
154 157 159 156 156 154 151 147 143 139 137 135 132 129 126 121 116 111 107 103 100 97 94 91 88 85 84 82 79 76 73 68 62 57 61 58 59 56 52 49 48 47 44
155 158 156 157 157 155 152 148 145 142 140 138 135 132 130 125 119 115 110 106 103 100 98 95 91 89 87 84 80 77 73 67 64 63 62 56 53 49 46 42 40 41 39
157 158 156 159 158 155 153 151 148 146 144 142 138 135 132 127 122 118 114 110 107 103 100 97 94 92 90 87 82 78 73 65 71 65 59 49 44 40 40 35 31 33 31
158 158 158 161 159 157 155 154 152 150 148 145 141 138 135 130 126 122 119 116 113 109 106 102 98 96 93 88 83 78 72 58 65 65 56 48 38 32 35 30 26 26 27
159 160 160 163 161 160 159 157 156 154 151 148 146 142 138 134 132 129 125 122 119 115 111 106 102 99 95 90 85 78 70 50 73 66 55 46 29 28 35 30 28 28 29
162 163 164 167 165 163 162 161 161 158 154 152 149 145 142 140 139 135 131 128 123 119 115 111 105 101 96 92 88 80 72 36 58 58 50 41 21 27 35 35 35 34 34
167 169 169 171 169 167 166 164 162 160 158 155 151 145 142 143 142 138 138 132 128 125 121 113 106 101 94 90 89 85 79 53 59 61 50 37 16 28 38 39 36 38 36
175 177 175 174 172 171 169 165 165 163 161 157 153 145 151 157 152 150 137 134 132 129 122 114 107 103 105 99 92 93 88 56 62 51 48 26 16 31 42 41 40 40 36
182 182 180 178 174 172 168 168 172 170 167 170 166 163 167 161 157 150 133 136 132 128 123 114 114 124 136 108 109 144 64 58 55 59 51 24 18 31 42 44 40 37 33
182 182 183 181 177 174 172 173 174 174 174 177 173 172 168 163 160 161 158 155 152 153 144 134 148 128 106 85 76 68 51 47 50 61 55 31 22 33 44 44 38 35 34
184 186 185 182 181 181 178 177 177 177 178 178 178 176 173 171 173 172 173 168 167 166 158 163 151 132 118 105 85 70 61 50 51 56 61 41 32 38 45 43 40 37 34
188 187 188 186 185 184 183 181 183 182 181 180 179 183 182 179 180 178 178 175 176 170 172 173 168 149 138 113 84 65 64 59 61 73 83 60 49 49 48 43 38 34 31
192 190 188 190 189 187 187 186 187 186 184 184 183 187 187 186 184 184 182 182 181 180 178 180 172 166 150 138 106 82 73 74 80 97 94 89 69 57 49 42 36 30 26
194 191 190 191 191 190 191 191 189 188 187 188 187 190 191 191 189 188 188 186 184 181 181 181 173 174 156 162 153 109 96 80 105 116 111 103 95 74 58 46 36 30 22
195 192 191 190 193 194 193 192 192 191 190 192 191 192 194 195 193 192 192 191 185 183 186 186 188 185 183 190 170 139 143 133 137 124 133 126 108 95 77 55 39 30 20
198 194 192 192 194 195 194 193 193 192 194 195 194 195 196 197 197 197 197 192 187 189 192 189 195 198 191 182 166 155 165 166 156 167 154 141 126 114 86 71 52 34 18
200 196 195 194 196 194 193 193 192 195 198 199 198 198 197 198 199 200 199 195 190 192 195 194 190 188 186 172 160 169 178 186 189 185 177 169 162 157 126 28 9 31 22
200 198 197 195 195 192 191 193 194 198 199 200 201 201 200 200 199 200 199 196 194 199 200 196 187 182 181 176 190 197 188 193 198 193 198 197 186 189 217 291 329 331 342
201 199 198 198 195 194 195 196 199 198 201 202 200 203 203 203 202 201 201 198 197 200 200 194 190 193 181 193 215 225 217 197 202 206 206 213 216 213 233 259 291 308 318
202 201 199 199 197 197 196 194 192 192 194 198 202 203 205 204 203 202 204 203 200 200 200 197 195 197 194 193 217 232 243 242 188 193 210 218 223 232 240 251 266 280 297
205 202 201 200 199 197 194 194 191 194 199 202 201 202 202 204 204 204 204 205 202 202 203 200 199 202 197 193 197 228 252 274 244 227 203 214 226 240 246 249 256 259 269
204 201 201 200 200 197 196 197 197 202 206 203 200 201 201 202 204 204 203 203 203 203 205 199 195 199 203 202 192 189 206 222 240 248 251 230 230 235 244 254 253 250 252
203 200 200 200 201 198 197 199 201 204 203 199 198 198 199 199 202 203 203 203 203 203 203 199 196 200 203 203 198 192 195 203 213 223 248 257 258 249 250 250 248 240 248
Height
1511 1514 1518 1521 1524 1527 1529 1531 1532 1534 1535 1536 1537 1537 1538 1538 1538 1538 1538 1539 1539 1539 1539 1539 1539 1539 1538 1538 1538 1538 1537 1537 1537 1537 1536 1536 1535 1535 1534 1534 1534 1533 1532
1509 1513 1517 1520 1524 1526 1529 1531 1532 1534 1535 1536 1537 1537 1538 1538 1539 1539 1539 1539 1540 1540 1540 1540 1540 1539 1539 1539 1539 1538 1538 1538 1538 1538 1538 1537 1537 1536 1535 1534 1534 1533 1533
1509 1513 1516 1520 1523 1526 1529 1531 1532 1534 1535 1536 1537 1538 1538 1539 1539 1540 1540 1540 1541 1541 1541 1541 1541 1540 1540 1540 1540 1539 1539 1539 1539 1539 1539 1540 1539 1538 1537 1536 1535 1534 1533
1509 1513 1516 1520 1523 1526 1529 1531 1532 1534 1535 1536 1537 1538 1539 1539 1540 1540 1541 1541 1541 1542 1542 1542 1542 1542 1541 1541 1541 1541 1541 1541 1541 1541 1541 1541 1541 1539 1538 1537 1536 1536 1534
1510 1513 1516 1520 1523 1526 1528 1531 1532 1534 1535 1536 1537 1538 1539 1540 1541 1541 1542 1542 1542 1542 1543 1543 1543 1543 1543 1542 1542 1542 1542 1542 1542 1542 1542 1542 1542 1541 1540 1539 1538 1537 1536
1509 1513 1516 1520 1523 1526 1528 1530 1532 1534 1535 1536 1538 1539 1540 1540 1541 1542 1542 1543 1543 1543 1544 1544 1544 1544 1544 1544 1544 1543 1543 1543 1543 1543 1543 1543 1543 1541 1541 1540 1539 1538 1537
1509 1513 1517 1520 1523 1526 1528 1530 1532 1534 1536 1537 1538 1539 1540 1541 1542 1542 1543 1544 1544 1544 1545 1545 1545 1545 1545 1545 1545 1544 1544 1544 1544 1544 1544 1544 1543 1542 1541 1540 1539 1539 1538
1510 1513 1517 1520 1523 1526 1528 1530 1532 1534 1536 1537 1538 1539 1541 1541 1542 1543 1544 1544 1545 1546 1546 1546 1547 1547 1546 1546 1546 1545 1545 1545 1545 1545 1545 1545 1543 1543 1542 1541 1540 1539 1538
1510 1513 1517 1520 1523 1526 1528 1530 1532 1534 1536 1537 1539 1540 1541 1542 1543 1544 1545 1545 1546 1547 1547 1547 1548 1547 1547 1547 1547 1546 1546 1546 1547 1546 1546 1545 1544 1544 1543 1541 1541 1540 1539
1510 1513 1516 1520 1523 1525 1528 1530 1532 1534 1536 1537 1539 1540 1541 1542 1543 1544 1545 1546 1547 1547 1548 1548 1548 1548 1548 1548 1548 1547 1547 1547 1547 1547 1547 1546 1545 1544 1543 1542 1541 1540 1539
1508 1511 1515 1519 1521 1524 1527 1529 1532 1534 1535 1537 1539 1540 1541 1543 1544 1545 1546 1546 1547 1548 1548 1549 1549 1549 1549 1549 1548 1548 1548 1548 1548 1548 1547 1546 1545 1545 1544 1543 1542 1540 1539
1504 1509 1513 1516 1520 1523 1526 1528 1531 1533 1535 1537 1539 1540 1542 1543 1545 1545 1545 1547 1548 1548 1549 1549 1549 1549 1550 1550 1549 1549 1549 1549 1549 1548 1547 1546 1546 1545 1544 1543 1542 1541 1539
1501 1505 1510 1513 1517 1520 1523 1526 1529 1532 1534 1536 1538 1539 1541 1542 1543 1545 1546 1547 1548 1549 1550 1549 1550 1550 1551 1550 1550 1550 1549 1549 1549 1548 1547 1546 1545 1545 1544 1543 1542 1541 1540
1499 1502 1507 1510 1514 1518 1521 1524 1527 1529 1532 1534 1536 1538 1539 1541 1542 1544 1545 1547 1548 1549 1549 1550 1551 1550 1550 1550 1550 1549 1549 1549 1548 1548 1547 1546 1545 1545 1544 1543 1542 1541 1540
1495 1499 1503 1507 1510 1514 1518 1521 1524 1527 1529 1532 1534 1536 1538 1539 1541 1543 1545 1546 1547 1548 1549 1550 1550 1550 1550 1550 1549 1549 1549 1548 1548 1547 1546 1545 1545 1544 1544 1543 1542 1541 1539
1492 1495 1499 1503 1507 1511 1514 1518 1521 1524 1527 1530 1532 1534 1536 1538 1540 1541 1543 1544 1546 1547 1548 1549 1550 1550 1550 1549 1549 1549 1548 1548 1547 1547 1546 1545 1544 1544 1543 1542 1541 1540 1539
1488 1492 1495 1499 1503 1507 1511 1515 1518 1521 1524 1527 1529 1532 1534 1536 1538 1540 1542 1543 1545 1546 1547 1548 1548 1549 1549 1549 1548 1548 1547 1547 1546 1546 1545 1545 1544 1543 1542 1541 1540 1539 1538
1484 1488 1491 1495 1499 1503 1507 1511 1514 1518 1521 1524 1527 1529 1532 1534 1536 1538 1540 1542 1543 1544 1545 1546 1547 1548 1548 1548 1548 1547 1546 1546 1545 1545 1544 1544 1543 1543 1541 1540 1539 1538 1537
1479 1483 1487 1490 1494 1499 1503 1507 1511 1514 1517 1520 1523 1526 1529 1531 1534 1536 1538 1540 1541 1542 1544 1545 1546 1546 1547 1547 1546 1546 1545 1545 1544 1544 1544 1543 1542 1542 1541 1539 1538 1537 1535
1474 1478 1482 1486 1490 1495 1499 1503 1507 1510 1513 1516 1519 1522 1525 1528 1531 1533 1535 1537 1539 1540 1541 1543 1544 1544 1545 1545 1545 1545 1544 1544 1543 1543 1542 1542 1541 1540 1539 1538 1537 1535 1534
1468 1471 1475 1479 1484 1489 1493 1496 1500 1503 1507 1511 1514 1518 1521 1524 1527 1529 1532 1534 1536 1537 1539 1541 1542 1542 1543 1543 1544 1543 1543 1542 1541 1541 1541 1540 1539 1539 1538 1537 1535 1534 1532
1460 1464 1468 1472 1477 1481 1485 1490 1494 1498 1502 1506 1509 1513 1516 1519 1522 1525 1528 1530 1532 1534 1536 1538 1539 1540 1541 1541 1542 1543 1543 1542 1539 1539 1539 1538 1538 1537 1536 1535 1533 1532 1530
1452 1456 1460 1465 1470 1474 1479 1485 1489 1494 1498 1501 1503 1506 1510 1514 1517 1520 1523 1526 1528 1530 1532 1534 1536 1537 1538 1539 1540 1541 1541 1541 1539 1537 1536 1536 1535 1535 1534 1532 1531 1529 1527
1444 1449 1453 1458 1463 1467 1472 1476 1480 1484 1488 1491 1495 1500 1504 1508 1512 1515 1518 1521 1524 1526 1528 1530 1532 1534 1535 1535 1536 1537 1538 1537 1538 1537 1535 1534 1533 1532 1531 1529 1528 1526 1524
1437 1441 1446 1450 1455 1460 1464 1468 1473 1477 1482 1487 1491 1494 1498 1502 1506 1509 1513 1516 1519 1521 1524 1526 1528 1530 1531 1532 1533 1533 1534 1534 1534 1534 1534 1532 1530 1529 1528 1526 1525 1523 1521
1430 1434 1438 1443 1447 1452 1456 1461 1465 1470 1475 1479 1483 1487 1491 1495 1499 1503 1507 1510 1513 1516 1519 1521 1523 1525 1527 1528 1529 1530 1530 1531 1531 1530 1530 1529 1528 1526 1524 1523 1521 1519 1517